Location: *
(48.7358°N, 0.3111°E)
Time: 01:51:08
(UTC+00:00)

ADEOS II - Pass Details

Date: 22 October 2019
Orbit: 800 x 800 km, 98.5° (Epoch: 21 November)

Event Time Altitude Azimuth Distance (km) Brightness Sun altitude
Rises 04:18:08 0° 3° (N) 3,323 5.5 -22.2°
Reaches altitude 10° 04:21:06 10° 346° (NNW) 2,388 4.5 -21.7°
Enters shadow 04:23:00 16° 327° (NNW) 1,971 3.9 -21.4°
